Time,TemperatureF,DewpointF,PressureIn,WindDirection,WindDirectionDegrees,WindSpeedMPH,WindSpeedGustMPH,Humidity,HourlyPrecipIn,Conditions,Clouds,dailyrainin,SoftwareType,DateUTC
2013-07-25 00:02:00,71.0,70.0,29.86,West,273,0.0,1.0,98,0.01,,,0.03,,2013-07-25 05:02:00,
2013-07-25 00:12:00,71.0,70.0,29.86,West,276,0.0,1.0,97,0.01,,,0.03,,2013-07-25 05:12:00,
2013-07-25 00:32:00,71.0,70.0,29.86,West,266,0.0,0.0,98,0.01,,,0.03,,2013-07-25 05:32:00,
2013-07-25 00:43:00,70.0,69.0,29.86,West,266,0.0,0.0,98,0.00,,,0.03,,2013-07-25 05:43:00,
2013-07-25 00:52:00,70.0,69.0,29.85,West,266,0.0,0.0,98,0.00,,,0.03,,2013-07-25 05:52:00,
2013-07-25 01:02:00,70.0,69.0,29.85,West,266,0.0,0.0,98,0.00,,,0.03,,2013-07-25 06:02:00,
2013-07-25 01:12:00,70.0,69.0,29.84,West,265,0.0,0.0,98,0.00,,,0.03,,2013-07-25 06:12:00,
2013-07-25 01:22:00,70.0,69.0,29.84,West,265,0.0,0.0,98,0.00,,,0.03,,2013-07-25 06:22:00,
2013-07-25 01:32:00,70.0,69.0,29.83,West,281,1.0,3.0,98,0.00,,,0.03,,2013-07-25 06:32:00,
2013-07-25 01:42:00,70.0,69.0,29.83,West,281,1.0,3.0,98,0.00,,,0.03,,2013-07-25 06:42:00,
2013-07-25 01:52:00,70.0,69.0,29.83,West,280,0.0,1.0,98,0.00,,,0.03,,2013-07-25 06:52:00,
2013-07-25 02:02:00,70.0,69.0,29.83,WNW,284,0.0,1.0,98,0.00,,,0.03,,2013-07-25 07:02:00,
2013-07-25 02:12:00,70.0,69.0,29.83,WNW,284,0.0,1.0,98,0.00,,,0.03,,2013-07-25 07:12:00,
2013-07-25 02:22:00,70.0,69.0,29.82,West,276,0.0,1.0,98,0.00,,,0.03,,2013-07-25 07:22:00,
2013-07-25 02:43:00,70.0,69.0,29.82,West,276,0.0,1.0,98,0.00,,,0.03,,2013-07-25 07:43:00,
2013-07-25 02:53:00,70.0,69.0,29.82,West,276,0.0,1.0,98,0.00,,,0.03,,2013-07-25 07:53:00,
2013-07-25 03:02:00,70.0,69.0,29.83,West,276,0.0,2.0,98,0.00,,,0.03,,2013-07-25 08:02:00,
2013-07-25 03:12:00,70.0,69.0,29.83,West,276,0.0,2.0,98,0.00,,,0.03,,2013-07-25 08:12:00,
2013-07-25 03:22:00,70.0,69.0,29.83,West,280,0.0,2.0,98,0.00,,,0.03,,2013-07-25 08:22:00,
2013-07-25 03:44:00,70.0,69.0,29.83,West,277,0.0,1.0,98,0.00,,,0.03,,2013-07-25 08:44:00,
2013-07-25 03:52:00,70.0,69.0,29.83,West,277,0.0,0.0,98,0.00,,,0.03,,2013-07-25 08:52:00,
2013-07-25 04:02:00,70.0,69.0,29.84,West,276,0.0,0.0,98,0.00,,,0.03,,2013-07-25 09:02:00,
2013-07-25 04:12:00,70.0,69.0,29.84,West,276,0.0,0.0,98,0.00,,,0.03,,2013-07-25 09:12:00,
2013-07-25 04:22:00,70.0,69.0,29.84,West,277,0.0,0.0,98,0.00,,,0.03,,2013-07-25 09:22:00,
2013-07-25 04:33:00,70.0,69.0,29.84,West,277,0.0,0.0,98,0.00,,,0.03,,2013-07-25 09:33:00,
2013-07-25 04:43:00,70.0,69.0,29.85,West,277,0.0,0.0,98,0.00,,,0.03,,2013-07-25 09:43:00,
2013-07-25 04:53:00,70.0,69.0,29.85,West,277,0.0,0.0,98,0.00,,,0.03,,2013-07-25 09:53:00,
2013-07-25 05:02:00,70.0,69.0,29.85,West,277,0.0,0.0,98,0.00,,,0.03,,2013-07-25 10:02:00,
2013-07-25 05:12:00,70.0,69.0,29.85,West,277,0.0,0.0,98,0.00,,,0.03,,2013-07-25 10:12:00,
2013-07-25 05:32:00,70.0,69.0,29.85,West,277,0.0,0.0,98,0.00,,,0.03,,2013-07-25 10:32:00,
2013-07-25 05:42:00,70.0,69.0,29.85,West,276,0.0,0.0,98,0.00,,,0.03,,2013-07-25 10:42:00,
2013-07-25 05:53:00,69.0,68.0,29.85,West,276,0.0,0.0,98,0.00,,,0.03,,2013-07-25 10:53:00,
2013-07-25 06:02:00,69.0,68.0,29.85,West,276,0.0,0.0,98,0.00,,,0.03,,2013-07-25 11:02:00,
2013-07-25 06:12:00,69.0,68.0,29.85,West,277,0.0,0.0,98,0.00,,,0.03,,2013-07-25 11:12:00,
2013-07-25 06:32:00,70.0,69.0,29.85,West,276,0.0,1.0,98,0.00,,,0.03,,2013-07-25 11:32:00,
2013-07-25 06:43:00,70.0,69.0,29.86,West,276,0.0,2.0,98,0.00,,,0.03,,2013-07-25 11:43:00,
2013-07-25 06:52:00,70.0,69.0,29.87,West,281,0.0,2.0,98,0.00,,,0.03,,2013-07-25 11:52:00,
2013-07-25 07:03:00,70.0,69.0,29.87,West,281,0.0,2.0,98,0.00,,,0.03,,2013-07-25 12:03:00,
2013-07-25 07:12:00,70.0,69.0,29.87,West,276,1.0,4.0,98,0.00,,,0.03,,2013-07-25 12:12:00,
2013-07-25 07:32:00,71.0,70.0,29.87,WNW,290,0.0,4.0,98,0.00,,,0.03,,2013-07-25 12:32:00,
2013-07-25 07:45:00,72.0,71.0,29.87,West,276,0.0,2.0,98,0.00,,,0.03,,2013-07-25 12:45:00,
2013-07-25 07:53:00,73.0,72.0,29.87,WNW,285,0.0,2.0,97,0.00,,,0.03,,2013-07-25 12:53:00,
2013-07-25 08:12:00,75.0,73.0,29.88,SW,235,1.0,2.0,95,0.00,,,0.03,,2013-07-25 13:12:00,
2013-07-25 09:33:00,78.0,74.0,29.89,SW,233,0.0,4.0,88,0.00,,,0.03,,2013-07-25 14:33:00,
2013-07-25 09:43:00,79.0,74.0,29.89,SSW,205,0.0,3.0,86,0.00,,,0.03,,2013-07-25 14:43:00,
2013-07-25 09:53:00,80.0,75.0,29.89,West,276,0.0,3.0,84,0.00,,,0.03,,2013-07-25 14:53:00,
2013-07-25 10:32:00,81.0,75.0,29.90,WSW,243,1.0,3.0,83,0.00,,,0.03,,2013-07-25 15:32:00,
2013-07-25 10:44:00,81.0,75.0,29.90,WSW,245,0.0,3.0,83,0.00,,,0.03,,2013-07-25 15:44:00,
2013-07-25 10:53:00,83.0,76.0,29.91,WSW,256,0.0,3.0,80,0.00,,,0.03,,2013-07-25 15:53:00,
2013-07-25 11:02:00,83.0,76.0,29.91,WSW,256,0.0,3.0,80,0.00,,,0.03,,2013-07-25 16:02:00,
2013-07-25 11:23:00,85.0,76.0,29.91,ENE,75,1.0,4.0,75,0.00,,,0.03,,2013-07-25 16:23:00,
2013-07-25 11:53:00,86.0,76.0,29.91,SE,139,1.0,4.0,73,0.00,,,0.03,,2013-07-25 16:53:00,
2013-07-25 12:03:00,86.0,76.0,29.91,SE,139,1.0,4.0,73,0.00,,,0.03,,2013-07-25 17:03:00,
2013-07-25 12:12:00,86.0,77.0,29.91,ENE,77,0.0,2.0,75,0.00,,,0.03,,2013-07-25 17:12:00,
2013-07-25 12:32:00,86.0,77.0,29.92,NW,304,0.0,2.0,75,0.00,,,0.03,,2013-07-25 17:32:00,
2013-07-25 12:43:00,87.0,78.0,29.91,West,273,0.0,2.0,74,0.00,,,0.03,,2013-07-25 17:43:00,
2013-07-25 12:53:00,88.0,76.0,29.91,SE,138,0.0,3.0,67,0.00,,,0.03,,2013-07-25 17:53:00,
2013-07-25 13:02:00,88.0,76.0,29.91,SE,138,0.0,3.0,67,0.00,,,0.03,,2013-07-25 18:02:00,
2013-07-25 13:12:00,87.0,76.0,29.91,NE,43,2.0,4.0,69,0.00,,,0.03,,2013-07-25 18:12:00,
2013-07-25 13:33:00,87.0,76.0,29.91,West,280,1.0,5.0,69,0.00,,,0.03,,2013-07-25 18:33:00,
2013-07-25 13:43:00,87.0,78.0,29.91,NE,53,0.0,2.0,75,0.00,,,0.03,,2013-07-25 18:43:00,
2013-07-25 13:52:00,89.0,77.0,29.91,East,79,0.0,2.0,68,0.00,,,0.03,,2013-07-25 18:52:00,
2013-07-25 14:02:00,89.0,77.0,29.91,East,79,0.0,2.0,68,0.00,,,0.03,,2013-07-25 19:02:00,
2013-07-25 14:12:00,89.0,77.0,29.91,West,277,1.0,7.0,67,0.00,,,0.03,,2013-07-25 19:12:00,
2013-07-25 14:22:00,87.0,77.0,29.91,WNW,293,2.0,5.0,72,0.00,,,0.03,,2013-07-25 19:22:00,
2013-07-25 14:33:00,87.0,77.0,29.91,WNW,293,2.0,5.0,72,0.00,,,0.03,,2013-07-25 19:33:00,
2013-07-25 14:43:00,88.0,77.0,29.91,West,273,2.0,8.0,71,0.00,,,0.03,,2013-07-25 19:43:00,
2013-07-25 14:53:00,89.0,76.0,29.91,WNW,284,2.0,4.0,66,0.00,,,0.03,,2013-07-25 19:53:00,
2013-07-25 15:02:00,89.0,76.0,29.91,WNW,284,2.0,4.0,66,0.00,,,0.03,,2013-07-25 20:02:00,
2013-07-25 15:12:00,89.0,76.0,29.91,ENE,72,0.0,6.0,65,0.00,,,0.03,,2013-07-25 20:12:00,
2013-07-25 15:22:00,89.0,75.0,29.91,WSW,254,1.0,4.0,64,0.00,,,0.03,,2013-07-25 20:22:00,
2013-07-25 15:32:00,89.0,75.0,29.91,WSW,254,1.0,4.0,64,0.00,,,0.03,,2013-07-25 20:32:00,
2013-07-25 15:43:00,89.0,77.0,29.90,SE,125,2.0,4.0,67,0.00,,,0.03,,2013-07-25 20:43:00,
2013-07-25 15:54:00,90.0,76.0,29.90,NE,41,0.0,5.0,63,0.00,,,0.03,,2013-07-25 20:54:00,
2013-07-25 16:03:00,90.0,76.0,29.90,NE,41,0.0,5.0,63,0.00,,,0.03,,2013-07-25 21:03:00,
2013-07-25 16:12:00,89.0,76.0,29.90,West,264,1.0,5.0,65,0.00,,,0.03,,2013-07-25 21:12:00,
2013-07-25 16:32:00,89.0,76.0,29.90,WNW,291,0.0,5.0,65,0.00,,,0.03,,2013-07-25 21:32:00,
2013-07-25 16:44:00,90.0,77.0,29.89,SE,127,0.0,4.0,66,0.00,,,0.03,,2013-07-25 21:44:00,
2013-07-25 16:52:00,89.0,74.0,29.89,WSW,255,1.0,9.0,61,0.00,,,0.03,,2013-07-25 21:52:00,
2013-07-25 17:02:00,89.0,74.0,29.89,WSW,255,1.0,9.0,61,0.00,,,0.03,,2013-07-25 22:02:00,
2013-07-25 17:12:00,89.0,74.0,29.89,SW,230,0.0,5.0,62,0.00,,,0.03,,2013-07-25 22:12:00,
2013-07-25 17:22:00,90.0,76.0,29.89,NW,311,1.0,4.0,64,0.00,,,0.03,,2013-07-25 22:22:00,
2013-07-25 17:43:00,89.0,76.0,29.89,West,278,1.0,7.0,66,0.00,,,0.03,,2013-07-25 22:43:00,
2013-07-25 17:53:00,89.0,76.0,29.89,West,280,1.0,5.0,65,0.00,,,0.03,,2013-07-25 22:53:00,
2013-07-25 18:12:00,88.0,76.0,29.89,WSW,250,0.0,5.0,68,0.00,,,0.03,,2013-07-25 23:12:00,
2013-07-25 18:22:00,89.0,77.0,29.90,West,267,0.0,2.0,67,0.00,,,0.02,,2013-07-25 23:22:00,
2013-07-25 18:32:00,89.0,77.0,29.90,West,267,0.0,2.0,67,0.00,,,0.02,,2013-07-25 23:32:00,
2013-07-25 18:43:00,88.0,77.0,29.90,West,281,0.0,2.0,69,0.00,,,0.02,,2013-07-25 23:43:00,
2013-07-25 18:52:00,88.0,77.0,29.90,NNE,26,0.0,0.0,69,0.00,,,0.02,,2013-07-25 23:52:00,
2013-07-25 19:02:00,87.0,77.0,29.91,NNE,26,0.0,0.0,72,0.00,,,0.02,,2013-07-26 00:02:00,
2013-07-25 19:12:00,87.0,77.0,29.91,NNE,26,0.0,0.0,72,0.00,,,0.02,,2013-07-26 00:12:00,
2013-07-25 19:22:00,86.0,77.0,29.91,NNE,33,0.0,0.0,74,0.00,,,0.01,,2013-07-26 00:22:00,
2013-07-25 19:33:00,83.0,76.0,29.91,NNE,33,0.0,0.0,80,0.00,,,0.01,,2013-07-26 00:33:00,
2013-07-25 19:43:00,83.0,76.0,29.91,NNE,33,0.0,0.0,80,0.00,,,0.01,,2013-07-26 00:43:00,
2013-07-25 19:52:00,80.0,75.0,29.91,NNE,33,0.0,0.0,85,0.00,,,0.01,,2013-07-26 00:52:00,
2013-07-25 20:02:00,80.0,75.0,29.91,NNE,33,0.0,0.0,85,0.00,,,0.01,,2013-07-26 01:02:00,
2013-07-25 20:12:00,79.0,75.0,29.91,NNE,33,0.0,0.0,87,0.00,,,0.01,,2013-07-26 01:12:00,
2013-07-25 20:32:00,78.0,74.0,29.91,NNE,33,0.0,0.0,89,0.00,,,0.01,,2013-07-26 01:32:00,
2013-07-25 20:43:00,77.0,74.0,29.92,NNE,33,0.0,0.0,91,0.00,,,0.01,,2013-07-26 01:43:00,
2013-07-25 20:52:00,77.0,74.0,29.92,NNE,33,0.0,0.0,91,0.00,,,0.01,,2013-07-26 01:52:00,
2013-07-25 21:02:00,77.0,74.0,29.92,NNE,33,0.0,0.0,91,0.00,,,0.01,,2013-07-26 02:02:00,
2013-07-25 21:12:00,76.0,74.0,29.93,NNE,33,0.0,0.0,92,0.00,,,0.01,,2013-07-26 02:12:00,
2013-07-25 21:22:00,76.0,74.0,29.93,NNE,33,0.0,0.0,93,0.00,,,0.01,,2013-07-26 02:22:00,
2013-07-25 21:43:00,76.0,74.0,29.93,NNE,33,0.0,0.0,93,0.00,,,0.01,,2013-07-26 02:43:00,
2013-07-25 21:52:00,75.0,73.0,29.94,NNE,33,0.0,0.0,94,0.00,,,0.01,,2013-07-26 02:52:00,
2013-07-25 22:02:00,75.0,73.0,29.94,NNE,33,0.0,0.0,94,0.00,,,0.01,,2013-07-26 03:02:00,
2013-07-25 22:12:00,75.0,73.0,29.94,NNE,33,0.0,0.0,94,0.00,,,0.01,,2013-07-26 03:12:00,
2013-07-25 22:32:00,75.0,73.0,29.94,NNE,33,0.0,0.0,95,0.00,,,0.01,,2013-07-26 03:32:00,
2013-07-25 22:43:00,74.0,72.0,29.94,NNE,33,0.0,0.0,95,0.00,,,0.01,,2013-07-26 03:43:00,
2013-07-25 22:53:00,74.0,72.0,29.95,NNE,33,0.0,0.0,95,0.00,,,0.01,,2013-07-26 03:53:00,
2013-07-25 23:12:00,74.0,72.0,29.95,NNE,33,0.0,0.0,95,0.00,,,0.01,,2013-07-26 04:12:00,
2013-07-25 23:23:00,74.0,72.0,29.95,NNE,33,0.0,0.0,95,0.00,,,0.01,,2013-07-26 04:23:00,
2013-07-25 23:32:00,74.0,72.0,29.95,NNE,33,0.0,0.0,95,0.00,,,0.01,,2013-07-26 04:32:00,
2013-07-25 23:42:00,74.0,73.0,29.95,NNE,33,0.0,0.0,96,0.00,,,0.01,,2013-07-26 04:42:00,
2013-07-25 23:53:00,73.0,72.0,29.95,NNE,33,0.0,0.0,96,0.00,,,0.01,,2013-07-26 04:53:00,